This is the latest recevied weather packets stored in our database for station/object KC9DNQ-3. If no packets are shown the sender has not sent any weather packets the latest 10 day(s).
| Time | Temp. | Humidity | Pressure | Rain* | Wind** | Luminosity | Snow |
|---|---|---|---|---|---|---|---|
| 1777758311 | 13.33° C | 44% | 1016.3 hPa | 0 mm | - | 113 W/m² | - |
| 1777758011 | 13.33° C | 40% | 1016.3 hPa | 0 mm | - | 153 W/m² | - |
| 1777757711 | 13.33° C | 41% | 1016.4 hPa | 0 mm | - | 158 W/m² | - |
| 1777757411 | 12.78° C | 40% | 1016.4 hPa | 0 mm | - | 179 W/m² | - |
| 1777757111 | 12.78° C | 43% | 1016.3 hPa | 0 mm | - | 197 W/m² | - |
| 1777756812 | 12.78° C | 42% | 1016.4 hPa | 0 mm | - | 190 W/m² | - |
| 1777756511 | 13.33° C | 43% | 1016.4 hPa | 0 mm | - | 160 W/m² | - |
| 1777756211 | 13.33° C | 43% | 1016.5 hPa | 0 mm | - | 200 W/m² | - |
| 1777755911 | 13.89° C | 40% | 1016.6 hPa | 0 mm | - | 234 W/m² | - |
| 1777755611 | 13.89° C | 40% | 1016.6 hPa | 0 mm | - | 239 W/m² | - |
| 1777755311 | 14.44° C | 40% | 1016.7 hPa | 0 mm | - | 882 W/m² | - |
| 1777755011 | 15° C | 40% | 1016.9 hPa | 0 mm | - | 216 W/m² | - |
| 1777754712 | 15° C | 40% | 1016.9 hPa | 0 mm | - | 958 W/m² | - |
| 1777754411 | 14.44° C | 39% | 1016.9 hPa | 0 mm | - | 895 W/m² | - |
| 1777754111 | 14.44° C | 42% | 1016.9 hPa | 0 mm | - | 963 W/m² | - |
| 1777753812 | 13.89° C | 40% | 1016.9 hPa | 0 mm | - | 455 W/m² | - |
| 1777753511 | 13.89° C | 38% | 1017 hPa | 0 mm | - | 923 W/m² | - |
| 1777753212 | 14.44° C | 38% | 1017.4 hPa | 0 mm | - | 879 W/m² | - |
| 1777752911 | 14.44° C | 39% | 1017.4 hPa | 0 mm | - | 919 W/m² | - |
| 1777752612 | 14.44° C | 40% | 1017.4 hPa | 0 mm | - | 860 W/m² | - |
| 1777752311 | 13.33° C | 45% | 1017.4 hPa | 0 mm | - | 863 W/m² | - |
| 1777752011 | 12.78° C | 43% | 1017.6 hPa | 0 mm | - | 900 W/m² | - |
| 1777751711 | 12.78° C | 41% | 1017.6 hPa | 0 mm | - | 243 W/m² | - |
| 1777751413 | 13.33° C | 38% | 1017.6 hPa | 0 mm | - | 186 W/m² | - |
| 1777751112 | 13.33° C | 42% | 1017.6 hPa | 0 mm | - | 279 W/m² | - |
* Rain latest hour (hover to see other rain measurements)
** Current wind speed in m/s (hover to see current wind gust speed)